#timestamp,LO_Frequency,Hit,StdDev 
1711224015.4,286047035.8,N
1711224035.2,286047042.0,Y
1711224055.1,286047039.5,P
1711224056.0,286047039.5,N
1711224075.8,286047040.3,N
1711224095.7,286047039.5,N
1711224115.5,286047039.0,Y
1711224135.3,286047002.2,P
1711224155.2,286047002.6,N
1711224175.0,286047001.6,N
1711224175.9,286047001.6,N
1711224195.8,286047004.6,N
1711224215.6,286047008.5,N
1711224235.4,286047011.6,N
1711224255.3,286047014.1,N
1711224275.1,286047020.4,N
1711224295.9,286047023.3,N
1711224315.7,286047021.6,N
1711224335.5,286047023.0,N
1711224355.4,286047021.5,N
1711224375.2,286047017.6,N
1711224395.0,286047018.6,N
1711224395.9,286047018.6,N
1711224415.8,286047015.4,N
1711224435.6,286047016.7,N
1711224455.5,286047012.5,N
1711224475.3,286047018.0,N
1711224495.1,286047013.3,N
1711224515.9,286047014.7,N
1711224535.7,286047015.1,N
1711224555.6,286047016.6,N
1711224575.4,286047016.6,N
1711224595.3,286047016.8,N
1711224615.1,286047018.2,N
1711224616.0,286047018.2,N
1711224635.8,286047019.2,N
1711224655.7,286047020.4,N
1711224675.5,286047020.4,Y
1711224695.4,286047008.5,P
1711224715.2,286047015.2,P
1711224735.0,286047015.8,P
1711224735.9,286047015.8,Y
1711224755.8,286047003.6,P
1711224775.6,286047000.3,N
1711224795.5,286046999.1,N
1711224815.3,286046995.3,N
1711224835.1,286046999.6,N
1711224855.9,286046999.1,N
1711224875.7,286046996.8,N
1711224895.5,286047001.2,N
1711224915.4,286047002.1,N
1711224935.2,286047005.9,N
1711224955.1,286047006.8,N
1711224956.0,286047006.8,N
1711224975.8,286047007.2,N
1711224995.6,286047006.8,N
1711225015.5,286047007.5,N
1711225035.3,286047004.6,N
1711225055.1,286047008.8,N
1711225075.9,286047008.8,N
1711225095.7,286047008.4,N
1711225115.6,286047009.5,N
1711225135.4,286047006.6,N
1711225155.2,286047006.2,N
1711225175.1,286047008.3,N
1711225176.0,286047008.3,N
1711225195.8,286047008.0,N
1711225215.6,286047008.0,N
1711225235.5,286047012.0,N
1711225255.3,286047009.4,N
1711225275.2,286047010.3,N
1711225295.9,286047013.3,N
1711225315.7,286047014.6,Y
1711225335.6,286047008.4,P
1711225355.4,286047010.6,P
1711225375.2,286047013.3,P
1711225395.1,286047013.3,Y
1711225396.0,286047013.3,P
1711225415.8,286047007.0,P
1711225435.7,286047006.4,N
1711225455.5,286047008.4,Y
1711225475.3,286046999.0,P
1711225495.2,286046999.3,N
1711225515.0,286046997.7,N
1711225515.9,286046997.7,N
1711225535.8,286046993.3,N
1711225555.6,286046991.2,N
1711225575.4,286046988.9,N
1711225595.3,286046991.5,N
1711225615.1,286046990.9,N
1711225635.8,286046994.5,N
1711225655.7,286046994.0,N
1711225675.5,286046992.6,N
1711225695.4,286046991.8,N
1711225715.2,286046995.5,N
1711225735.0,286046997.6,N
1711225735.9,286046997.6,N
1711225755.8,286046998.4,N
1711225775.6,286047004.4,N
1711225795.4,286047007.6,N
1711225815.3,286047006.6,N
1711225835.1,286047008.5,N
1711225855.9,286047013.8,N
1711225875.7,286047015.4,N
1711225895.5,286047019.8,N
1711225915.4,286047023.5,N
1711225935.2,286047024.6,N
1711225955.0,286047025.6,N
1711225955.9,286047025.6,N
1711225975.8,286047025.5,N
1711225995.6,286047025.8,N
1711226015.5,286047025.3,N
1711226035.3,286047025.5,N
1711226055.1,286047029.8,N
1711226105.9,286047036.1,E
1711226115.8,286047023.1,N
1711226135.7,286047002.9,P
1711226155.5,286047006.1,N
1711226175.3,286047009.0,N
1711226195.2,286047009.9,N
1711226215.9,286047010.3,N
1711226235.7,286047012.0,N
1711226255.6,286047015.5,N
1711226275.4,286047017.1,N
1711226295.2,286047015.4,N
1711226315.1,286047016.0,N
1711226316.0,286047016.0,N
1711226335.8,286047019.0,Y
1711226355.7,286047009.3,P
1711226375.5,286047012.5,P
1711226395.3,286047015.1,P
1711226415.2,286047016.6,Y
1711226465.1,286047004.3,E
1711226475.9,286047000.7,N
1711226495.7,286047000.5,P
1711226515.5,286046999.8,N
1711226535.4,286047000.0,N
1711226555.2,286047001.1,N
1711226575.1,286046998.4,Y
1711226576.0,286046998.4,P
1711226595.8,286046996.7,P
1711226615.6,286046991.7,P
1711226635.5,286046990.1,Y
1711226655.3,286046994.7,P
1711226675.2,286046993.2,P
1711226695.9,286046990.5,P
1711226715.7,286046988.7,Y
1711226735.6,286046996.0,P
1711226755.4,286046996.2,P
1711226775.2,286046993.5,P
1711226795.1,286046996.0,Y
1711226796.0,286046996.0,P
1711226815.8,286047004.0,P
1711226835.7,286047005.1,N
1711226855.5,286047005.9,N
1711226875.3,286047005.8,N
1711226895.2,286047002.7,N
1711226915.0,286047000.2,N
1711226915.9,286047000.2,N
1711226935.8,286047000.2,N
1711226955.6,286046999.8,N
1711226975.4,286047003.0,N
1711226995.3,286047005.6,N
1711227015.1,286047011.9,Y
1711227035.8,286047001.9,P
1711227055.7,286047001.7,P
1711227075.5,286047002.8,P
1711227095.4,286046999.9,N
1711227115.2,286047000.9,N
1711227135.0,286046999.3,N
1711227135.9,286046999.3,N
1711227155.8,286046998.5,N
1711227175.6,286046998.7,N
1711227195.4,286047001.0,N
1711227215.3,286047000.9,N
1711227235.1,286047000.0,N
1711227255.9,286047000.1,N
1711227275.7,286047003.2,N
1711227295.5,286047007.4,Y
1711227315.4,286047010.4,P
1711227335.2,286047016.8,P
1711227355.0,286047020.8,P
1711227355.9,286047020.8,N
1711227375.8,286047027.2,Y
1711227395.6,286047020.7,P
1711227415.5,286047023.7,P
1711227435.3,286047025.9,P
1711227455.1,286047028.9,Y
1711227475.9,286047013.6,P
1711227495.7,286047016.6,P
1711227515.5,286047018.1,P
1711227535.4,286047022.8,Y
1711227555.2,286047003.6,P
1711227575.1,286047007.7,N
1711227576.0,286047007.7,N
1711227595.8,286047016.4,Y
